Location: Carlingford
(46.7848°N, 67.7474°W)
Time: 05:24:04
(UTC+00:00)

Tiangong - Pass Details

Date: 03 December 2022
Orbit: 382 x 386 km, 41.5° (Epoch: 05 February)

Event Time Altitude Azimuth Distance (km) Brightness Sun altitude
Rises 23:35:36 0° 258° (WSW) 2,251 3.0 -28.6°
Reaches altitude 10° 23:37:48 10° 247° (WSW) 1,399 1.5 -28.9°
Enters shadow 23:38:09 12° 244° (WSW) 1,272 1.2 -29.0°
